This is the latest recevied weather packets stored in our database for station/object W4NRG-1. If no packets are shown the sender has not sent any weather packets the latest 10 day(s).
| Time | Temp. | Humidity | Pressure | Rain* | Wind** | Luminosity | Snow |
|---|---|---|---|---|---|---|---|
| 1777849591 | 15.56° C | 34% | 1016 hPa | 0 mm | - | - | - |
| 1777849288 | 15.56° C | 34% | 1015.7 hPa | 0 mm | - | - | - |
| 1777848986 | 17.22° C | 33% | 1015.8 hPa | 0 mm | - | - | - |
| 1777848685 | 17.22° C | 33% | 1016 hPa | 0 mm | - | - | - |
| 1777848383 | 16.67° C | 33% | 1015.9 hPa | 0 mm | - | - | - |
| 1777848081 | - | - | - | 0 mm | - | - | - |
| 1777847778 | - | - | - | 0 mm | - | - | - |
| 1777847474 | 17.22° C | 32% | 1015.9 hPa | 0 mm | - | - | - |
| 1777847172 | 17.22° C | 32% | 1016.1 hPa | 0 mm | - | - | - |
| 1777846869 | 17.22° C | 32% | 1015.9 hPa | 0 mm | - | - | - |
| 1777846568 | - | - | - | 0 mm | - | - | - |
| 1777846265 | 17.22° C | 32% | 1016.2 hPa | 0 mm | - | - | - |
| 1777845961 | 17.22° C | 32% | 1016.2 hPa | 0 mm | - | - | - |
| 1777845658 | - | - | - | 0 mm | - | - | - |
| 1777845355 | 17.78° C | 30% | 1016 hPa | 0 mm | - | - | - |
| 1777845052 | 17.78° C | 30% | 1016.2 hPa | 0 mm | - | - | - |
| 1777844750 | 17.78° C | 34% | 1016.2 hPa | 0 mm | - | - | - |
| 1777844446 | 17.78° C | 34% | 1016.1 hPa | 0 mm | - | - | - |
| 1777844145 | 17.78° C | 31% | 1015.8 hPa | 0 mm | - | - | - |
| 1777843841 | 17.78° C | 33% | 1016 hPa | 0 mm | - | - | - |
| 1777843539 | 17.78° C | 33% | 1016.1 hPa | 0 mm | - | - | - |
| 1777843236 | 17.22° C | 33% | 1016.1 hPa | 0 mm | - | - | - |
| 1777842933 | 17.78° C | 31% | 1015.9 hPa | 0 mm | - | - | - |
| 1777842628 | 17.22° C | 34% | 1015.8 hPa | 0 mm | - | - | - |
| 1777842326 | - | - | - | 0 mm | - | - | - |
* Rain latest hour (hover to see other rain measurements)
** Current wind speed in m/s (hover to see current wind gust speed)